Clarksburg, WV

1:37 AM EST on December 12, 2019 (GMT -0500)
Benedum

Weather History for KCKB - June, 2019

Change the Weather History Date:

Sunday, June 2, 2019

  Actual Average Record
Temperature  
Mean Temperature 67 °F -  
Max Temperature 79 °F 78 °F 93 °F (1951)
Min Temperature 54 °F 53 °F 34 °F (1966)
Cooling Degree Days 2    
Month to date cooling degree days 8  
Year to date cooling degree days 187  
Since 1 June cooling degree days 8  
Growing Degree Days 20 (Base 50)    
Moisture  
Dew Point 61 °F    
Average Humidity 73    
Maximum Humidity 87    
Minimum Humidity 58    
Precipitation  
Precipitation 0.40 in - - ()
Month to date precipitation 0.40  
Year to date precipitation 18.17  
Sea Level Pressure  
Sea Level Pressure 29.79 in    
Wind  
Wind Speed 5 mph (SW)    
Max Wind Speed 32 mph    
Max Gust Speed 47 mph    
Visibility 9 miles    
Events Rain , Thunderstorm    
Averages and records for this station are not official NWS values.
T = Trace of Precipitation, MM = Missing Value Source: NWS Daily Summary

Daily Weather History Graph

Daily Weather History Graph

Search for Another Location

Airport or City:

Astronomy

Jun. 02, 2019 Rise Set
Actual Time 5:55 AM EDT 8:42 PM EDT
Civil Twilight 5:24 AM EDT 9:13 PM EDT
Nautical Twilight 4:44 AM EDT 9:53 PM EDT
Astronomical Twilight 3:59 AM EDT 10:39 PM EDT
Moon 5:34 AM EDT (6/2) 8:00 PM EDT (6/2)
Length of Visible Light 15h 49m
Length of Day
14h 46m
Waning Crescent, 1% of the Moon is Illuminated
Jun 2
Waning Crescent
Jun 3
New
Jun 10
First Quarter
Jun 17
Full
Jun 25
Last Quarter

Hourly Weather History & Observations

Time (EDT) Temp. Dew Point Humidity Pressure Visibility Wind Dir Wind Speed Gust Speed Precip Events Conditions
12:53 AM 64.9 °F 59.0 °F 81% 29.82 in 9.0 mi Calm Calm - N/A   Partly Cloudy
1:53 AM 64.0 °F 59.0 °F 84% 29.79 in 10.0 mi Calm Calm - N/A   Partly Cloudy
2:53 AM 63.0 °F 57.9 °F 84% 29.78 in 9.0 mi Calm Calm - N/A   Clear
3:53 AM 63.0 °F 57.9 °F 84% 29.77 in 9.0 mi Calm Calm - N/A   Partly Cloudy
4:53 AM 63.0 °F 57.9 °F 84% 29.75 in 10.0 mi South 3.5 mph - N/A   Clear
5:53 AM 63.0 °F 57.0 °F 81% 29.75 in 10.0 mi South 4.6 mph - N/A   Partly Cloudy
6:53 AM 63.0 °F 57.9 °F 84% 29.80 in 9.0 mi NNW 15.0 mph 18.4 mph N/A   Scattered Clouds
7:53 AM 64.0 °F 60.1 °F 87% 29.78 in 9.0 mi Calm Calm - 0.01 in   Partly Cloudy
8:53 AM 66.9 °F 61.0 °F 81% 29.78 in 10.0 mi SSW 5.8 mph - N/A   Clear
9:53 AM 70.0 °F 61.0 °F 73% 29.78 in 10.0 mi SSW 10.4 mph - N/A   Scattered Clouds
10:53 AM 73.0 °F 61.0 °F 66% 29.77 in 10.0 mi SW 10.4 mph 19.6 mph N/A   Mostly Cloudy
11:53 AM 75.9 °F 61.0 °F 60% 29.77 in 10.0 mi SW 11.5 mph - N/A   Mostly Cloudy
12:53 PM 79.0 °F 63.0 °F 58% 29.75 in 10.0 mi WSW 13.8 mph 19.6 mph N/A   Scattered Clouds
1:07 PM 77.0 °F 61.0 °F 58% 29.79 in 9.0 mi West 12.7 mph - N/A Thunderstorm Thunderstorm
1:20 PM 72.0 °F 63.0 °F 73% 29.80 in 0.5 mi WSW 26.5 mph 47.2 mph 0.12 in Rain , Thunderstorm Light Thunderstorms and Rain
1:27 PM 68.0 °F 57.0 °F 68% 29.78 in 0.5 mi North - - 0.25 in Thunderstorm Unknown
1:33 PM 66.9 °F 61.0 °F 81% 29.78 in 2.5 mi SSW 8.1 mph - 0.25 in Thunderstorm Unknown
1:40 PM 70.0 °F 63.0 °F 78% 29.77 in 10.0 mi SSW 4.6 mph - 0.25 in Thunderstorm Thunderstorm
1:53 PM 70.0 °F 62.1 °F 76% 29.72 in 10.0 mi West 4.6 mph - 0.25 in Thunderstorm Mostly Cloudy
2:07 PM 70.0 °F 64.0 °F 81% 29.76 in 10.0 mi Calm Calm - N/A   Partly Cloudy
2:48 PM 73.4 °F 64.4 °F 73% 29.77 in 10.0 mi West 3.5 mph - 0.06 in Thunderstorm Mostly Cloudy
2:53 PM 73.0 °F 63.0 °F 71% 29.71 in 10.0 mi Calm Calm - 0.06 in Thunderstorm Mostly Cloudy
3:02 PM 71.1 °F 64.0 °F 78% 29.75 in 2.5 mi NNW 9.2 mph - 0.06 in Rain , Thunderstorm Heavy Thunderstorms and Rain
3:15 PM 70.0 °F 63.0 °F 78% 29.80 in 6.0 mi West 6.9 mph - 0.07 in Rain , Thunderstorm Light Thunderstorms and Rain
3:38 PM 66.9 °F 61.0 °F 81% 29.81 in 10.0 mi SSW 8.1 mph - 0.07 in Thunderstorm Mostly Cloudy
3:53 PM 66.9 °F 62.1 °F 84% 29.77 in 10.0 mi SSE 4.6 mph - 0.07 in   Mostly Cloudy
4:53 PM 73.0 °F 63.0 °F 71% 29.77 in 10.0 mi SW 8.1 mph - N/A   Partly Cloudy
5:53 PM 71.1 °F 64.9 °F 81% 29.78 in 10.0 mi WSW 5.8 mph - 0.01 in   Mostly Cloudy
6:23 PM 71.1 °F 64.0 °F 78% 29.81 in 10.0 mi Variable 3.5 mph - N/A Thunderstorm Thunderstorm
6:31 PM 69.1 °F 61.0 °F 75% 29.81 in 10.0 mi Variable 4.6 mph - 0.00 in Rain , Thunderstorm Light Rain
6:39 PM 70.0 °F 62.1 °F 76% 29.80 in 10.0 mi SE 4.6 mph - 0.00 in   Overcast
6:53 PM 71.1 °F 61.0 °F 70% 29.78 in 10.0 mi Calm Calm - 0.00 in   Overcast
7:10 PM 71.1 °F 63.0 °F 75% 29.83 in 10.0 mi SSW 3.5 mph - N/A   Scattered Clouds
7:32 PM 70.0 °F 63.0 °F 78% 29.83 in 10.0 mi SSE 3.5 mph - N/A   Mostly Cloudy
7:41 PM 70.0 °F 63.0 °F 78% 29.84 in 10.0 mi Calm Calm - N/A   Unknown
7:53 PM 69.1 °F 63.0 °F 81% 29.81 in 9.0 mi North 4.6 mph - N/A   Unknown
8:53 PM 66.0 °F 57.9 °F 75% 29.85 in 9.0 mi North 6.9 mph - N/A   Unknown
9:53 PM 64.0 °F 54.0 °F 70% 29.87 in 10.0 mi North 9.2 mph - N/A   Clear
10:53 PM 61.0 °F 53.1 °F 75% 29.89 in 10.0 mi Calm Calm - N/A   Clear
11:53 PM 55.0 °F 51.1 °F 86% 29.90 in 10.0 mi Calm Calm - N/A   Clear